GW1008 Weather Reports


Display with metric or nautical units.
time (UTC)temp
F
wind
direction
speed
MPH
gust
MPH
rain 1hr
in
rain 24hr
in
rain mn
in
humidity
%
barometer
mb
20260902163518 55 132 1.0 10.0 0.00 0.00 0.00 79 1011.0
20260902163038 55 142 3.0 10.0 0.00 0.00 0.00 79 1011.2
20260902162518 55 0 3.0 14.0 0.00 0.00 0.00 79 1011.2
20260902162022 55 0 2.0 14.0 0.00 0.00 0.00 79 1011.1
20260902161537 55 136 5.0 13.0 0.00 0.00 0.00 78 1011.2
20260902161016 55 0 4.0 12.0 0.00 0.00 0.00 78 1011.1
20260902160515 55 132 1.0 11.0 0.00 0.00 0.00 78 1011.1
20260902160033 55 142 3.0 11.0 0.00 0.00 0.00 78 1011.3
20260902155517 55 0 3.0 10.0 0.00 0.00 0.00 78 1011.4
20260902155015 56 131 2.0 10.0 0.00 0.00 0.00 78 1011.5
20260902154533 56 134 3.0 10.0 0.00 0.00 0.00 78 1011.6
20260902154016 56 148 3.0 10.0 0.00 0.00 0.00 78 1011.8
20260902153519 56 143 1.0 7.0 0.00 0.00 0.00 78 1011.7
20260902153033 56 0 0.0 9.0 0.00 0.00 0.00 78 1011.6
20260902152517 56 0 1.0 9.0 0.00 0.00 0.00 77 1011.8
20260902152014 56 0 0.0 8.0 0.00 0.00 0.00 78 1011.9
20260902151534 56 0 0.0 8.0 0.00 0.00 0.00 78 1011.9
20260902151019 56 0 1.0 8.0 0.00 0.00 0.00 77 1011.9
20260902150518 55 144 0.0 5.0 0.00 0.00 0.00 78 1011.9
20260902150032 55 0 0.0 7.0 0.00 0.00 0.00 77 1012.0
20260902145518 55 0 1.0 7.0 0.00 0.00 0.00 77 1012.0
20260902145017 55 144 1.0 7.0 0.00 0.00 0.00 76 1012.1
20260902144530 55 0 0.0 8.0 0.00 0.00 0.00 77 1012.1
20260902144018 55 0 0.0 8.0 0.00 0.00 0.00 77 1012.3
20260902143519 55 140 1.0 8.0 0.00 0.00 0.00 77 1012.3
20260902143030 55 0 0.0 8.0 0.00 0.00 0.00 77 1012.4
20260902142519 55 132 1.0 8.0 0.00 0.00 0.00 77 1012.5
20260902142015 55 0 0.0 7.0 0.00 0.00 0.00 77 1012.5
20260902141538 55 0 0.0 7.0 0.00 0.00 0.00 77 1012.6
20260902141016 56 148 0.0 8.0 0.00 0.00 0.00 77 1012.6
20260902140518 55 0 1.0 8.0 0.00 0.00 0.00 77 1012.7
20260902140033 55 131 0.0 7.0 0.00 0.00 0.00 78 1012.6
20260902135516 55 0 0.0 7.0 0.00 0.00 0.00 77 1012.6
20260902135016 55 0 0.0 5.0 0.00 0.00 0.00 77 1012.7
20260902134538 55 0 0.0 4.0 0.00 0.00 0.00 77 1012.9
20260902134017 55 0 0.0 8.0 0.00 0.00 0.00 77 1012.9
20260902133517 55 0 0.0 8.0 0.00 0.00 0.00 76 1012.9
20260902133033 56 0 0.0 10.0 0.00 0.00 0.00 75 1012.8
20260902132520 56 0 1.0 10.0 0.00 0.00 0.00 75 1012.9
20260902132017 56 0 1.0 8.0 0.00 0.00 0.00 74 1012.9
20260902131537 56 0 0.0 9.0 0.00 0.00 0.00 73 1012.8
20260902131016 57 0 2.0 9.0 0.00 0.00 0.00 73 1012.9
20260902130520 56 0 0.0 11.0 0.00 0.00 0.00 74 1012.8
20260902130034 56 116 4.0 11.0 0.00 0.00 0.00 73 1012.9
20260902125516 56 128 3.0 9.0 0.00 0.00 0.00 72 1013.0
20260902125022 56 132 0.0 5.0 0.00 0.00 0.00 73 1013.1
20260902124533 56 0 0.0 9.0 0.00 0.00 0.00 72 1013.0
20260902124015 56 0 1.0 10.0 0.00 0.00 0.00 72 1013.1
20260902123515 56 150 5.0 10.0 0.00 0.00 0.00 70 1013.2
20260902123030 57 140 2.0 10.0 0.00 0.00 0.00 69 1013.1
20260902122520 57 130 1.0 10.0 0.00 0.00 0.00 69 1013.1
20260902122017 57 0 0.0 10.0 0.00 0.00 0.00 69 1013.1
20260902121534 57 0 0.0 10.0 0.00 0.00 0.00 68 1013.0
20260902121016 57 158 5.0 10.0 0.00 0.00 0.00 67 1013.1
20260902120517 57 0 4.0 10.0 0.00 0.00 0.00 66 1013.1
20260902120037 57 128 1.0 10.0 0.00 0.00 0.00 66 1013.2
20260902115521 57 130 4.0 10.0 0.00 0.00 0.00 66 1013.1
20260902115016 57 123 4.0 9.0 0.00 0.00 0.00 66 1013.2
20260902114541 57 146 3.0 8.0 0.00 0.00 0.00 66 1013.2
20260902114016 58 126 1.0 8.0 0.00 0.00 0.00 66 1013.3
20260902113518 58 0 1.0 8.0 0.00 0.00 0.00 66 1013.4
20260902113030 58 0 1.0 7.0 0.00 0.00 0.00 67 1013.5
20260902112517 57 0 0.0 7.0 0.00 0.00 0.00 68 1013.4
20260902112016 57 0 0.0 7.0 0.00 0.00 0.00 66 1013.4
20260902111533 57 140 0.0 9.0 0.00 0.00 0.00 66 1013.5
20260902111016 57 0 0.0 11.0 0.00 0.00 0.00 67 1013.5
20260902110519 57 0 1.0 11.0 0.00 0.00 0.00 67 1013.6
20260902110039 57 0 0.0 8.0 0.00 0.00 0.00 67 1013.6
20260902105519 57 150 0.0 8.0 0.00 0.00 0.00 67 1013.7
20260902105018 57 150 0.0 8.0 0.00 0.00 0.00 68 1013.6
20260902104547 58 0 0.0 9.0 0.00 0.00 0.00 67 1013.6
20260902104017 58 0 0.0 9.0 0.00 0.00 0.00 66 1013.6
20260902103517 58 0 0.0 4.0 0.00 0.00 0.00 66 1013.5
20260902103036 58 0 0.0 0.0 0.00 0.00 0.00 66 1013.6
20260902102518 59 0 0.0 0.0 0.00 0.00 0.00 65 1013.5
20260902102016 59 0 0.0 3.0 0.00 0.00 0.00 64 1013.6
20260902101533 60 0 0.0 4.0 0.00 0.00 0.00 63 1013.6
20260902101019 60 0 0.0 4.0 0.00 0.00 0.00 61 1013.8
20260902100516 61 155 0.0 3.0 0.00 0.00 0.00 63 1013.7
20260902100031 60 0 0.0 2.0 0.00 0.00 0.00 63 1013.7
20260902095515 59 0 0.0 1.0 0.00 0.00 0.00 65 1013.8
20260902095017 59 0 0.0 1.0 0.00 0.00 0.00 65 1013.8
20260902094533 59 0 0.0 7.0 0.00 0.00 0.00 64 1013.9
20260902094018 59 0 0.0 7.0 0.00 0.00 0.00 64 1013.8
20260902093523 60 0 0.0 2.0 0.00 0.00 0.00 64 1013.9
20260902093034 59 0 0.0 0.0 0.00 0.00 0.00 66 1013.9
20260902092517 59 0 0.0 1.0 0.00 0.00 0.00 66 1014.0
20260902092023 59 0 0.0 3.0 0.00 0.00 0.00 68 1014.0
20260902091533 58 0 0.0 3.0 0.00 0.00 0.00 70 1014.1
20260902091016 58 0 0.0 0.0 0.00 0.00 0.00 70 1014.1
20260902090516 57 0 0.0 0.0 0.00 0.00 0.00 71 1014.0
20260902090033 57 0 0.0 0.0 0.00 0.00 0.00 70 1013.9
20260902085517 57 0 0.0 3.0 0.00 0.00 0.00 70 1013.9
20260902085017 57 0 0.0 3.0 0.00 0.00 0.00 70 1014.0
20260902084531 57 0 0.0 2.0 0.00 0.00 0.00 72 1014.0
20260902084022 57 0 0.0 2.0 0.00 0.00 0.00 74 1014.0
20260902083516 56 0 0.0 3.0 0.00 0.00 0.00 78 1014.1
20260902083031 54 0 0.0 3.0 0.00 0.00 0.00 78 1014.2
20260902082516 54 149 0.0 0.0 0.00 0.00 0.00 78 1014.5
20260902082021 54 0 0.0 2.0 0.00 0.00 0.00 79 1014.4
20260902081534 53 0 0.0 2.0 0.00 0.00 0.00 80 1014.4
20260902081018 53 0 0.0 3.0 0.00 0.00 0.00 81 1014.3
20260902080518 52 0 0.0 3.0 0.00 0.00 0.00 81 1014.4
20260902080036 52 0 0.0 3.0 0.00 0.00 0.00 83 1014.3
20260902075515 51 0 0.0 2.0 0.00 0.00 0.00 83 1014.4
20260902075017 51 0 0.0 1.0 0.00 0.00 0.00 83 1014.4
20260902074532 51 0 0.0 1.0 0.00 0.00 0.00 83 1014.4
20260902074017 51 0 0.0 0.0 0.00 0.00 0.00 84 1014.3
20260902073516 51 0 0.0 0.0 0.00 0.00 0.00 84 1014.5
20260902073033 51 0 0.0 0.0 0.00 0.00 0.00 84 1014.4
20260902072519 51 0 0.0 0.0 0.00 0.00 0.00 84 1014.3
20260902072021 50 0 0.0 0.0 0.00 0.00 0.00 85 1014.4
20260902071537 50 0 0.0 0.0 0.00 0.00 0.00 86 1014.3
20260902071018 50 0 0.0 0.0 0.00 0.00 0.00 86 1014.3
20260902070518 50 0 0.0 0.0 0.00 0.00 0.00 86 1014.2
20260902070035 49 0 0.0 0.0 0.00 0.00 0.00 86 1014.1
20260902065518 49 0 0.0 0.0 0.00 0.00 0.00 86 1014.2
20260902065018 49 0 0.0 0.0 0.00 0.00 0.00 87 1014.0
20260902064534 49 0 0.0 0.0 0.00 0.00 0.00 86 1014.2
20260902064020 48 0 0.0 0.0 0.00 0.00 0.00 87 1014.2
20260902063519 48 0 0.0 0.0 0.00 0.00 0.00 87 1014.1
20260902063035 48 0 0.0 0.0 0.00 0.00 0.00 87 1014.0
20260902062516 48 0 0.0 0.0 0.00 0.00 0.00 86 1014.0
20260902062018 47 0 0.0 0.0 0.00 0.00 0.00 86 1014.1
20260902061531 47 0 0.0 0.0 0.00 0.00 0.00 86 1014.2
20260902061028 47 0 0.0 0.0 0.00 0.00 0.00 86 1014.2
20260902060515 47 0 0.0 0.0 0.00 0.00 0.00 86 1014.2
20260902060036 47 0 0.0 0.0 0.00 0.00 0.00 86 1014.1
20260902055519 47 0 0.0 0.0 0.00 0.00 0.00 86 1014.1
20260902055019 47 0 0.0 0.0 0.00 0.00 0.00 87 1014.1
20260902054536 47 0 0.0 0.0 0.00 0.00 0.00 87 1014.0
20260902054015 46 0 0.0 0.0 0.00 0.00 0.00 86 1014.0
20260902053518 46 0 0.0 0.0 0.00 0.00 0.00 86 1014.0
20260902053032 46 0 0.0 0.0 0.00 0.00 0.00 86 1014.1
20260902052519 46 0 0.0 0.0 0.00 0.00 0.00 86 1014.0
20260902052016 46 0 0.0 0.0 0.00 0.00 0.00 86 1014.1
20260902051532 46 0 0.0 0.0 0.00 0.00 0.00 86 1014.0
20260902051018 46 0 0.0 0.0 0.00 0.00 0.00 85 1014.0
20260902050516 46 0 0.0 0.0 0.00 0.00 0.00 85 1013.9
20260902050032 46 0 0.0 0.0 0.00 0.00 0.00 85 1014.0
20260902045516 46 0 0.0 0.0 0.00 0.00 0.00 85 1014.1
20260902045018 46 0 0.0 0.0 0.00 0.00 0.00 85 1014.1
20260902044542 46 0 0.0 0.0 0.00 0.00 0.00 85 1014.1
20260902044017 46 0 0.0 0.0 0.00 0.00 0.00 85 1013.9
20260902043517 46 0 0.0 0.0 0.00 0.00 0.00 85 1013.9
20260902043032 45 0 0.0 0.0 0.00 0.00 0.00 85 1013.9
20260902042548 45 0 0.0 0.0 0.00 0.00 0.00 85 1013.9
20260902042018 45 0 0.0 0.0 0.00 0.00 0.00 85 1013.8
20260902041538 45 0 0.0 0.0 0.00 0.00 0.00 84 1013.8
20260902041018 45 0 0.0 0.0 0.00 0.00 0.00 84 1013.8
20260902040518 45 0 0.0 0.0 0.00 0.00 0.00 84 1013.8
20260902040035 45 0 0.0 0.0 0.00 0.00 0.00 83 1013.7
20260902035516 45 0 0.0 0.0 0.00 0.00 0.00 83 1013.6
20260902035018 46 0 0.0 0.0 0.00 0.00 0.00 82 1013.6
20260902034532 46 0 0.0 0.0 0.00 0.00 0.00 83 1013.6
20260902034015 46 0 0.0 0.0 0.00 0.00 0.00 83 1013.6
20260902033518 46 0 0.0 0.0 0.00 0.00 0.00 83 1013.5
20260902033032 46 0 0.0 0.0 0.00 0.00 0.00 83 1013.5
20260902032518 46 0 0.0 0.0 0.00 0.00 0.00 83 1013.6
20260902032019 46 0 0.0 0.0 0.00 0.00 0.00 83 1013.6
20260902031539 46 0 0.0 0.0 0.00 0.00 0.00 82 1013.6
20260902031017 46 0 0.0 0.0 0.00 0.00 0.00 82 1013.7
20260902030516 46 0 0.0 0.0 0.00 0.00 0.00 82 1013.6
20260902030031 46 0 0.0 0.0 0.00 0.00 0.00 82 1013.6
20260902025518 46 0 0.0 0.0 0.00 0.00 0.00 81 1013.6
20260902025018 46 0 0.0 0.0 0.00 0.00 0.00 80 1013.6
20260902024531 46 0 0.0 0.0 0.00 0.00 0.00 80 1013.5
20260902024017 46 0 0.0 0.0 0.00 0.00 0.00 80 1013.5
20260902023516 47 0 0.0 0.0 0.00 0.00 0.00 80 1013.5
20260902023031 47 0 0.0 6.0 0.00 0.00 0.00 80 1013.4
20260902022518 47 0 0.0 7.0 0.00 0.00 0.00 79 1013.5
20260902022017 47 155 0.0 7.0 0.00 0.00 0.00 79 1013.5
20260902021542 47 139 1.0 7.0 0.00 0.00 0.00 80 1013.4
20260902021016 47 152 0.0 5.0 0.00 0.00 0.00 80 1013.4
20260902020516 46 0 0.0 4.0 0.00 0.00 0.00 80 1013.4
20260902020036 46 0 0.0 4.0 0.00 0.00 0.00 81 1013.5
20260902015519 46 0 0.0 4.0 0.00 0.00 0.00 80 1013.4
20260902015018 46 0 0.0 0.0 0.00 0.00 0.00 81 1013.5
20260902014547 46 0 0.0 0.0 0.00 0.00 0.00 80 1013.4
20260902014016 46 0 0.0 0.0 0.00 0.00 0.00 80 1013.3
20260902013516 46 0 0.0 2.0 0.00 0.00 0.00 80 1013.3
20260902013034 46 0 0.0 4.0 0.00 0.00 0.00 80 1013.3
20260902012516 45 0 0.0 4.0 0.00 0.00 0.00 81 1013.1
20260902012017 45 0 0.0 4.0 0.00 0.00 0.00 81 1013.1
20260902011531 44 0 0.0 4.0 0.00 0.00 0.00 81 1013.0
20260902011016 44 0 0.0 4.0 0.00 0.00 0.00 81 1013.0
20260902010515 44 0 0.0 2.0 0.00 0.00 0.00 80 1013.0
20260902010032 44 0 0.0 2.0 0.00 0.00 0.00 79 1012.8
20260902005516 44 0 0.0 0.0 0.00 0.00 0.00 78 1012.9
20260902005019 45 0 0.0 0.0 0.00 0.00 0.00 78 1012.9
20260902004534 45 0 0.0 0.0 0.00 0.00 0.00 79 1012.9
20260902004019 45 0 0.0 0.0 0.00 0.00 0.00 79 1012.9
20260902003520 45 0 0.0 0.0 0.00 0.00 0.00 78 1012.9
20260902003034 45 0 0.0 0.0 0.00 0.00 0.00 78 1012.7
20260902002517 45 0 0.0 0.0 0.00 0.00 0.00 79 1012.7
20260902002019 46 0 0.0 0.0 0.00 0.00 0.00 78 1012.7
20260902001533 46 0 0.0 0.0 0.00 0.00 0.00 78 1012.7
20260902001015 46 0 0.0 0.0 0.00 0.00 0.00 78 1012.7
20260902000521 46 0 0.0 0.0 0.00 0.00 0.00 77 1012.7
20260902000039 47 0 0.0 0.0 0.00 0.00 0.00 77 1012.5
20260901235521 47 0 0.0 0.0 0.00 0.00 0.00 77 1012.5
20260901235018 47 0 0.0 2.0 0.00 0.00 0.00 77 1012.7
20260901234548 47 0 0.0 2.0 0.00 0.00 0.00 77 1012.6
20260901234018 48 0 0.0 0.0 0.00 0.00 0.00 76 1012.6
20260901233517 48 0 0.0 0.0 0.00 0.00 0.00 76 1012.5
20260901233031 48 0 0.0 0.0 0.00 0.00 0.00 76 1012.6
20260901232516 48 0 0.0 0.0 0.00 0.00 0.00 75 1012.6
20260901232022 48 0 0.0 3.0 0.00 0.00 0.00 75 1012.6
20260901231534 49 0 0.0 3.0 0.00 0.00 0.00 75 1012.6
20260901231017 49 0 0.0 3.0 0.00 0.00 0.00 75 1012.5
20260901230518 49 0 0.0 3.0 0.00 0.00 0.00 74 1012.6
20260901230034 49 0 0.0 0.0 0.00 0.00 0.00 74 1012.7
20260901225517 49 0 0.0 0.0 0.00 0.00 0.00 74 1012.7
20260901225017 50 0 0.0 3.0 0.00 0.00 0.00 74 1012.7
20260901224538 50 0 0.0 3.0 0.00 0.00 0.00 75 1012.6
20260901224016 49 0 0.0 9.0 0.00 0.00 0.00 75 1012.4
20260901223517 49 0 1.0 9.0 0.00 0.00 0.00 76 1012.4
20260901223031 49 0 1.0 6.0 0.00 0.00 0.00 77 1012.4
20260901222521 48 286 0.0 4.0 0.00 0.00 0.00 78 1012.4
20260901222016 48 0 0.0 4.0 0.00 0.00 0.00 78 1012.5
20260901221600 48 286 0.0 4.0 0.00 0.00 0.00 79 1012.5
20260901221017 48 0 1.0 6.0 0.00 0.00 0.00 79 1012.4
20260901220517 47 0 0.0 6.0 0.00 0.00 0.00 80 1012.3
20260901220032 47 284 0.0 4.0 0.00 0.00 0.00 81 1012.2
20260901215515 46 0 0.0 4.0 0.00 0.00 0.00 80 1012.2
20260901215022 46 0 0.0 3.0 0.00 0.00 0.00 78 1012.3
20260901214533 46 0 0.0 3.0 0.00 0.00 0.00 78 1012.5
20260901214017 46 0 0.0 3.0 0.00 0.00 0.00 79 1012.5
20260901213514 46 0 0.0 0.0 0.00 0.00 0.00 78 1012.5
20260901213035 46 0 0.0 0.0 0.00 0.00 0.00 77 1012.5
20260901212516 46 0 0.0 0.0 0.00 0.00 0.00 78 1012.5
20260901212021 46 0 0.0 0.0 0.00 0.00 0.00 79 1012.5
20260901211535 46 0 0.0 0.0 0.00 0.00 0.00 80 1012.6
20260901211017 46 0 0.0 4.0 0.00 0.00 0.00 80 1012.5
20260901210516 45 0 0.0 4.0 0.00 0.00 0.00 80 1012.4
20260901210033 45 0 0.0 0.0 0.00 0.00 0.00 80 1012.3
20260901205518 45 0 0.0 0.0 0.00 0.00 0.00 79 1012.4
20260901205017 45 0 0.0 0.0 0.00 0.00 0.00 78 1012.4
20260901204535 45 0 0.0 0.0 0.00 0.00 0.00 78 1012.4
20260901204015 46 0 0.0 0.0 0.00 0.00 0.00 77 1012.4
20260901203518 46 0 0.0 0.0 0.00 0.00 0.00 76 1012.3
20260901203047 46 0 0.0 0.0 0.00 0.00 0.00 76 1012.2
20260901202516 47 0 0.0 0.0 0.00 0.00 0.00 76 1012.4
20260901202023 47 0 0.0 0.0 0.00 0.00 0.00 75 1012.3
20260901201543 48 0 0.0 0.0 0.00 0.00 0.00 74 1012.2
20260901201017 49 0 0.0 0.0 0.00 0.00 0.00 73 1012.3
20260901200517 49 0 0.0 0.0 0.00 0.00 0.00 73 1012.2
20260901200034 50 0 0.0 2.0 0.00 0.00 0.00 73 1012.2
20260901195516 50 0 0.0 2.0 0.00 0.00 0.00 73 1012.0
20260901195019 50 0 0.0 2.0 0.00 0.00 0.00 72 1011.9
20260901194533 51 0 0.0 0.0 0.00 0.00 0.00 72 1011.9
20260901194018 51 0 0.0 0.0 0.00 0.00 0.00 72 1011.9
20260901193518 51 0 0.0 0.0 0.00 0.00 0.00 71 1011.8
20260901193032 52 0 0.0 0.0 0.00 0.00 0.00 70 1011.7
20260901192517 52 0 0.0 0.0 0.00 0.00 0.00 70 1011.6
20260901192020 53 0 0.0 0.0 0.00 0.00 0.00 69 1011.7
20260901191532 53 0 0.0 4.0 0.00 0.00 0.00 68 1011.5
20260901191018 54 0 0.0 4.0 0.00 0.00 0.00 68 1011.5
20260901190549 54 0 0.0 2.0 0.00 0.00 0.00 68 1011.6
20260901190041 55 0 0.0 5.0 0.00 0.00 0.00 67 1011.4
20260901185517 55 287 0.0 5.0 0.00 0.00 0.00 66 1011.4
20260901185019 55 0 0.0 4.0 0.00 0.00 0.00 66 1011.4
20260901184531 56 0 0.0 8.0 0.00 0.00 0.00 65 1011.3
20260901184016 56 0 0.0 8.0 0.00 0.00 0.00 65 1011.3
20260901183515 56 0 0.0 7.0 0.00 0.00 0.00 65 1011.2
20260901183036 57 0 0.0 8.0 0.00 0.00 0.00 64 1011.2
20260901182516 57 0 0.0 8.0 0.00 0.00 0.00 64 1011.1
20260901182016 58 267 1.0 8.0 0.00 0.00 0.00 63 1011.1
20260901181538 58 0 0.0 8.0 0.00 0.00 0.00 62 1011.0
20260901181018 59 0 1.0 7.0 0.00 0.00 0.00 62 1010.9
20260901180516 59 265 0.0 7.0 0.00 0.00 0.00 61 1010.9
20260901180033 60 241 0.0 10.0 0.00 0.00 0.00 61 1011.0
20260901175519 60 281 1.0 10.0 0.00 0.00 0.00 60 1010.9
20260901175017 60 276 0.0 6.0 0.00 0.00 0.00 60 1010.9
20260901174533 60 282 0.0 7.0 0.00 0.00 0.00 61 1010.9
20260901174019 60 287 0.0 13.0 0.00 0.00 0.00 60 1010.8
20260901173518 61 0 1.0 13.0 0.00 0.00 0.00 59 1010.9
20260901173033 61 284 1.0 13.0 0.00 0.00 0.00 57 1010.7
20260901172516 61 0 0.0 9.0 0.00 0.00 0.00 59 1010.8
20260901172016 61 0 1.0 9.0 0.00 0.00 0.00 58 1010.8
20260901171530 62 271 1.0 9.0 0.00 0.00 0.00 57 1010.7
20260901171017 62 0 1.0 9.0 0.00 0.00 0.00 57 1010.7
20260901170522 62 0 0.0 9.0 0.00 0.00 0.00 57 1010.6
20260901170031 63 0 1.0 9.0 0.00 0.00 0.00 56 1010.7
20260901165517 62 0 0.0 9.0 0.00 0.00 0.00 57 1010.6
20260901165015 62 0 1.0 11.0 0.00 0.00 0.00 56 1010.6
20260901164532 62 310 0.0 11.0 0.00 0.00 0.00 56 1010.4
20260901164016 62 259 1.0 12.0 0.00 0.00 0.00 56 1010.3